Location: Jastrz?bniki
(50.3667°N, 20.3833°E)
Time: 09:56:00
(UTC+00:00)

FENGYUN 3A - Pass Details

Date: 05 August 2024
Orbit: 822 x 834 km, 98.6° (Epoch: 09 September)

Event Time Altitude Azimuth Distance (km) Brightness Sun altitude
Rises 01:17:48 0° 14° (NNE) 3,397 8.1 -14.8°
Reaches altitude 10° 01:20:10 10° 13° (NNE) 2,459 7.2 -14.6°
Maximum altitude 01:25:37 81° 288° (WNW) 851 3.7 -14.0°
Enters shadow 01:29:46 18° 202° (SSW) 1,949 5.0 -13.6°
